Regional Weather Roundup
Issued by NWS Albany, NY

Home | Current Version | Previous Version | Graphics & Text | Print | Product List | Glossary Off
Versions: 1 2 3 4 5 6 7 8 9 10 11 12 13 14 15 16 17 18 19 20 21 22 23 24 25 26 27

000
ASUS41 KALY 110510
RWRALY

NEW YORK STATE HOURLY WEATHER ROUNDUP
NATIONAL WEATHER SERVICE ALBANY NY
1200 AM EST MON DEC 11 2017

NOTE: "FAIR" INDICATES FEW OR NO CLOUDS BELOW 12,000 FEET WITH NO
SIGNIFICANT WEATHER AND/OR NO OBSTRUCTIONS TO VISIBILITY.

NYZ032-033-038>043-046>054-057>066-NYZ062>081-082-084-110600-
EAST


CITY           SKY/WX    TMP DP  RH WIND       PRES   REMARKS
ALBANY         CLOUDY    32  21  64 S8        29.92R WCI  25
GLENS FALLS    CLOUDY    30  22  72 SW6       29.89R WCI  24
POUGHKEEPSIE   CLOUDY    34  19  54 VRB3      29.97R
NEWBURGH       CLOUDY    32  23  69 W9        29.97R WCI  24
MONTGOMERY     CLOUDY    32  21  64 SW9       29.96R WCI  24
WHITE PLAINS   CLOUDY    33  20  58 SW3       29.98S
ISLIP          CLOUDY    36  23  59 W10       30.01S WCI  28
NEW YORK CITY  CLOUDY    37  21  52 SW12      30.01S WCI  29
CENTRAL PARK   CLOUDY    36  21  54 VRB6G18   30.03S WCI  31
$$

NYZ005>009-017-018-044>046-055-056-110600-
CENTRAL


CITY           SKY/WX    TMP DP  RH WIND       PRES   REMARKS
FULTON         CLOUDY    30  22  72 SW15G22   29.88S WCI  19
SYRACUSE       FLURRIES  29  26  89 SW8       29.89S WCI  21
ROME           LGT SNOW  28  26  92 SW3       29.90S FOG
ELMIRA         CLOUDY    31  19  61 SW12      29.90S WCI  22
BINGHAMTON     CLOUDY    26  16  65 W10       29.86S WCI  16
$$

NYZ026>034-041>043-087-110600-
NORTH


CITY           SKY/WX    TMP DP  RH WIND       PRES   REMARKS
WATERTOWN      LGT SNOW  30  26  85 W12       29.84S FOG     WCI  20
FORT DRUM      NOT AVBL
OGDENSBURG     MOCLDY    30  22  73 NW13      29.83R WCI  20
MASSENA        CLOUDY    29  22  75 NW9       29.84R WCI  20
SARANAC LAKE   LGT SNOW  23  22  96 SW7       29.74S FOG     WCI  15
PLATTSBURGH    CLOUDY    29  22  75 S5        29.83R WCI  24
$$

NYZ001>004-010>016-019>021-085-110600-
WEST


CITY           SKY/WX    TMP DP  RH WIND       PRES   REMARKS
NIAGARA FALLS  FLURRIES  30  20  66 W10       29.87S WCI  21
BUFFALO        FLURRIES  28  21  75 SW7       29.87S WCI  21
DUNKIRK        HVY SNOW  27  25  92 SW12G22   29.90S VSB 1/4 WCI  17
JAMESTOWN      FLURRIES  23  19  86 SW14      29.85S WCI  11
WELLSVILLE     LGT SNOW  25  17  72 SW9       29.84S WCI  15
ROCHESTER      FLURRIES  28  25  88 SW13      29.89S WCI  17
PENN YAN       CLOUDY    30  17  58 SW8       29.88S WCI  22
$$

             KEY
       WCI = WIND CHILL INDEX
       VSB = VISIBILITY
       HX  = HEAT INDEX
$$




USA.gov is the U.S. government's official web portal to all federal, state and local government web resources and services.